| time (UTC) | temp F | wind direction | speed MPH | gust MPH | rain 1hr in | rain 24hr in | rain mn in | humidity % | barometer mb |
| 20260509123115 | 60 | 114 | 4.0 | 7.0 | 0.00 | 0.00 | 0.00 | 33 | 1017.6 |
| 20260509113115 | 61 | 221 | 3.0 | 8.0 | 0.00 | 0.00 | 0.00 | 35 | 1017.6 |
| 20260509110115 | 60 | 133 | 4.0 | 6.0 | 0.00 | 0.00 | 0.00 | 36 | 1018.6 |
| 20260509103115 | 60 | 142 | 3.0 | 7.0 | 0.00 | 0.00 | 0.00 | 36 | 1018.6 |
| 20260509100115 | 59 | 127 | 4.0 | 6.0 | 0.00 | 0.00 | 0.00 | 36 | 1018.6 |
| 20260509093115 | 59 | 139 | 4.0 | 5.0 | 0.00 | 0.00 | 0.00 | 37 | 1018.6 |
| 20260509083115 | 56 | 213 | 4.0 | 6.0 | 0.00 | 0.00 | 0.00 | 42 | 1018.7 |
| 20260509070115 | 53 | 128 | 0.0 | 3.0 | 0.00 | 0.00 | 0.00 | 54 | 1018.8 |
| 20260509063115 | 52 | 116 | 2.0 | 6.0 | 0.00 | 0.00 | 0.00 | 56 | 1018.8 |
| 20260509060135 | 52 | 120 | 0.0 | 2.0 | 0.00 | 0.00 | 0.00 | 62 | 1018.8 |
| 20260509053115 | 51 | 120 | 0.0 | 3.0 | 0.00 | 0.00 | 0.00 | 68 | 1018.8 |
| 20260509050134 | 50 | 120 | 0.0 | 0.0 | 0.00 | 0.00 | 0.00 | 68 | 1018.8 |
| 20260509043115 | 50 | 120 | 0.0 | 0.0 | 0.00 | 0.00 | 0.00 | 67 | 1017.8 |
| 20260509040115 | 49 | 123 | 0.0 | 0.0 | 0.00 | 0.00 | 0.00 | 67 | 1017.8 |
| 20260509033115 | 49 | 124 | 0.0 | 0.0 | 0.00 | 0.00 | 0.00 | 66 | 1017.9 |
| 20260509023115 | 49 | 124 | 0.0 | 0.0 | 0.00 | 0.00 | 0.00 | 64 | 1018.9 |
| 20260509020116 | 49 | 124 | 0.0 | 0.0 | 0.00 | 0.00 | 0.00 | 64 | 1018.9 |
| 20260509013115 | 49 | 124 | 0.0 | 0.0 | 0.00 | 0.00 | 0.00 | 63 | 1018.9 |
| 20260509010115 | 50 | 124 | 0.0 | 0.0 | 0.00 | 0.00 | 0.00 | 62 | 1018.9 |
| 20260509003115 | 50 | 124 | 0.0 | 0.0 | 0.00 | 0.00 | 0.00 | 61 | 1018.9 |
| 20260509000115 | 50 | 124 | 0.0 | 0.0 | 0.00 | 0.00 | 0.00 | 60 | 1018.9 |
| 20260508233115 | 50 | 124 | 0.0 | 0.0 | 0.00 | 0.00 | 0.00 | 59 | 1018.8 |
| 20260508230115 | 50 | 124 | 0.0 | 0.0 | 0.00 | 0.00 | 0.00 | 58 | 1018.8 |
| 20260508223115 | 50 | 130 | 0.0 | 0.0 | 0.00 | 0.00 | 0.00 | 57 | 1018.8 |
| 20260508220115 | 50 | 130 | 0.0 | 0.0 | 0.00 | 0.00 | 0.00 | 55 | 1018.8 |
| 20260508213115 | 51 | 130 | 0.0 | 0.0 | 0.00 | 0.00 | 0.00 | 54 | 1018.8 |
| 20260508210115 | 51 | 130 | 0.0 | 0.0 | 0.00 | 0.00 | 0.00 | 53 | 1018.8 |
| 20260508200115 | 51 | 130 | 0.0 | 0.0 | 0.00 | 0.00 | 0.00 | 50 | 1018.8 |
| 20260508193115 | 52 | 135 | 2.0 | 4.0 | 0.00 | 0.00 | 0.00 | 50 | 1017.8 |
| 20260508190115 | 52 | 135 | 0.0 | 0.0 | 0.00 | 0.00 | 0.00 | 48 | 1017.8 |
| 20260508183115 | 53 | 135 | 0.0 | 2.0 | 0.00 | 0.00 | 0.00 | 46 | 1017.8 |
| 20260508180136 | 53 | 118 | 0.0 | 0.0 | 0.00 | 0.00 | 0.00 | 46 | 1017.8 |
| 20260508173115 | 53 | 122 | 0.0 | 3.0 | 0.00 | 0.00 | 0.00 | 44 | 1017.8 |
| 20260508170134 | 53 | 122 | 0.0 | 0.0 | 0.00 | 0.00 | 0.00 | 43 | 1017.8 |
| 20260508163115 | 54 | 108 | 0.0 | 4.0 | 0.00 | 0.00 | 0.00 | 42 | 1017.7 |
| 20260508160115 | 54 | 139 | 3.0 | 4.0 | 0.00 | 0.00 | 0.00 | 40 | 1017.7 |
| 20260508153115 | 55 | 149 | 0.0 | 6.0 | 0.00 | 0.00 | 0.00 | 39 | 1017.7 |
| 20260508150115 | 55 | 157 | 3.0 | 6.0 | 0.00 | 0.00 | 0.00 | 39 | 1017.7 |
| 20260508143115 | 56 | 163 | 3.0 | 6.0 | 0.00 | 0.00 | 0.00 | 36 | 1017.7 |
| 20260508133115 | 57 | 74 | 3.0 | 6.0 | 0.00 | 0.01 | 0.00 | 36 | 1017.7 |